Find Kosmos-1434

NORAD ID: 13766 Int'l Des: 1983-002 Owner: GUKOS Country: SU operational
LEOCIRCULAR

リアルタイム位置

3D地球を読み込み中...

Kosmos-1434について

説明を読み込み中...

次回通過

Passes for default location (London). Set your location on the main map for personalized predictions.

高度履歴

Loading altitude history...

軌道要素

1 13766U 83002F 26106.72502109 -.00000025 00000-0 -53747-4 0 9996
2 13766 74.0222 262.1518 0023665 327.3015 43.7987 12.53822403979373
Epoch: Apr 16, 2026 • Age: 16 hours

現在のステータス

高度 1473.9 km
速度 7.12 km/s
衛星直下点 52.88°N, 73.84°E
打ち上げ日 Jan 19, 1983
運用期間 43.2 years
タイプ other

技術仕様

分類 Payload
質量 60.00 kg
乾燥質量 60.00 kg
総質量 60.00 kg
長さ 0.80 m
直径 0.80 m
スパン 0.80 m
形状 Poly
製造者 NPOPM
バスタイプ Strela-1 11F625
フェーズステータス In Orbit
所有者/国 GUKOS/SU

Most Searched